[[{"header":{"parameterUnit":"m.s-1","parameterCategory":1,"la1":30.2991,"la2":30.254,"lo1":-89.0895,"lo2":-89.0444,"dy":0.0017,"dx":0.0017,"nx":28,"ny":28,"refTime":"2025-08-05T21:00:00:Z","depth":0,"parameterNumber":2,"parameterNumberName":"U-component_of_WINDS"},"data":[0,0,0,0,0,0,0,0,0,0,0,0,0,0,0,0,0,0,0,0,0,0,0,0,0,0,0,0,0,0,0,0,0,0,0,0,0,0,0,0,0,0,0,0,0,0,0,0,0,0,0,0,0,0,0,0,0,0,-0.3127,-0.3125,0,-0.2986,-0.2984,-0.2982,-0.2946,-0.2947,-0.2948,-0.2949,-0.2798,-0.2793,-0.2788,0,0,0,0,0,0,0,0,0,0,0,0,0,-0.3361,-0.3356,-0.3127,-0.3125,-0.3123,-0.2986,-0.2984,-0.2982,-0.2946,-0.2947,-0.2948,-0.2949,-0.2799,-0.2793,-0.2788,0,0,0,0,0,0,0,0,0,0,0,0,0,-0.3243,-0.3355,-0.3127,-0.3089,-0.3084,-0.2986,-0.2984,-0.2981,-0.2946,-0.2947,-0.2949,-0.295,-0.2801,-0.2794,-0.2787,-0.2715,0,0,-0.2764,-0.2761,0,0,0,0,0,0,0,0,-0.325,-0.3234,-0.3096,-0.3092,-0.3086,-0.2985,-0.3011,-0.2892,-0.2946,-0.2998,-0.2949,-0.295,-0.2858,-0.2846,-0.2817,-0.2707,-0.2701,-0.2764,-0.2759,-0.2756,-0.2754,0,0,0,0,0,0,0,-0.3258,-0.324,-0.3071,-0.3094,-0.3088,-0.3077,-0.3062,-0.2988,-0.2922,-0.2994,-0.2991,-0.2975,-0.2856,-0.2824,-0.2813,-0.2699,-0.2764,-0.2757,-0.2753,-0.275,-0.2524,-0.2523,0,0,0,0,0,0,-0.3274,-0.3247,-0.3075,-0.3067,-0.3173,-0.3072,-0.3055,-0.3016,-0.2923,-0.291,-0.2974,-0.2974,-0.2836,-0.2821,-0.2807,-0.2717,-0.2756,-0.2749,-0.2745,-0.2526,-0.2524,-0.2522,0,0,0,0,0,0,-0.3279,-0.3259,-0.3081,-0.3156,-0.3133,-0.3067,-0.3023,-0.3012,-0.2981,-0.2908,-0.2896,-0.2954,-0.2836,-0.2818,-0.2739,-0.2712,-0.2746,-0.2739,-0.2528,-0.2525,-0.2523,-0.2537,0,0,0,0,0,0,-0.3286,-0.3261,-0.3233,-0.3156,-0.3129,-0.3016,-0.3021,-0.3009,-0.2969,-0.2967,-0.2886,-0.2874,-0.2836,-0.275,-0.2731,-0.2702,-0.2734,-0.253,-0.2527,-0.2524,-0.2538,-0.2535,-0.2532,0,0,0,0,0,-0.3294,-0.3241,-0.3232,-0.3212,-0.3094,-0.3015,-0.2999,-0.2958,-0.2967,-0.2938,-0.2892,-0.2876,-0.2718,-0.2742,-0.2721,-0.2689,-0.2531,-0.2528,-0.2524,-0.254,-0.2536,-0.2532,0,0,0,0,0,0,-0.3314,-0.323,-0.3219,-0.314,-0.3085,-0.3009,-0.2971,-0.2955,-0.2895,-0.2895,-0.2846,-0.2828,-0.2752,-0.2713,-0.2741,-0.2615,-0.2625,-0.2617,-0.2644,-0.2639,-0.2636,-0.2647,-0.2728,0,0,0,0,0,-0.331,-0.3254,-0.3183,-0.312,-0.3093,-0.3038,-0.3001,-0.2975,-0.2915,-0.2891,-0.2839,-0.2779,-0.2717,-0.2676,-0.2614,-0.2533,-0.2515,-0.2501,-0.2498,-0.2496,-0.2489,-0.2444,-0.2437,-0.251,-0.251,-0.251,0,0,-0.3299,-0.3247,-0.3214,-0.3123,-0.3077,-0.3019,-0.3018,-0.2956,-0.2912,-0.2881,-0.2804,-0.2764,-0.2694,-0.2615,-0.2577,-0.2579,-0.2465,-0.2491,-0.249,-0.2484,-0.244,-0.2433,-0.2427,-0.2508,-0.2508,-0.2509,0,0,-0.325,-0.3205,-0.3148,-0.3104,-0.3036,-0.2999,-0.2986,-0.2912,-0.2885,-0.2808,-0.2784,-0.273,-0.2623,-0.2575,-0.2536,-0.2473,-0.2455,-0.2454,-0.2437,-0.2394,-0.2388,-0.2383,-0.236,-0.2352,-0.2447,-0.2447,-0.2447,0,-0.3245,-0.3159,-0.312,-0.3061,-0.3021,-0.2994,-0.2935,-0.2893,-0.2807,-0.278,-0.2785,-0.2651,-0.2602,-0.2511,-0.2496,-0.2466,-0.2448,-0.2462,-0.2393,-0.2387,-0.2381,-0.2359,-0.235,-0.2448,-0.2448,-0.2448,-0.2448,0,-0.3156,-0.3096,-0.3058,-0.298,-0.2936,-0.2877,-0.2829,-0.2789,-0.2768,-0.2731,-0.2652,-0.2594,-0.252,-0.2497,-0.2473,-0.2403,-0.2407,-0.2403,-0.2411,-0.2375,-0.2353,-0.2344,-0.2448,-0.2448,-0.2448,-0.2448,0,0,-0.3112,-0.3016,-0.3003,-0.2967,-0.2892,-0.2844,-0.2784,-0.2715,-0.2682,-0.2624,-0.2572,-0.2484,-0.248,-0.2437,-0.2409,-0.2371,-0.2325,-0.2372,-0.2369,-0.2365,-0.2243,-0.2246,-0.2237,-0.2314,-0.2313,-0.2311,-0.2249,0,-0.3054,-0.2948,-0.2913,-0.2824,-0.2769,-0.2744,-0.2691,-0.2639,-0.2603,-0.255,-0.251,-0.2448,-0.2448,-0.2422,-0.2384,-0.2339,-0.23,-0.2343,-0.2264,-0.2262,-0.2281,-0.2226,-0.2228,-0.2172,-0.224,-0.2239,-0.2238,0,-0.2971,-0.2915,-0.2822,-0.2756,-0.2731,-0.2685,-0.2619,-0.2569,-0.2509,-0.2486,-0.2439,-0.2415,-0.235,-0.2364,-0.2274,-0.2305,-0.227,-0.2244,-0.224,-0.223,-0.2247,-0.2213,-0.2153,-0.2145,-0.2224,-0.2225,-0.2226,0,-0.2949,-0.285,-0.2782,-0.2753,-0.2673,-0.2642,-0.2607,-0.2548,-0.251,-0.2452,-0.2426,-0.2361,-0.2325,-0.2275,-0.2233,-0.2247,-0.2147,-0.2157,-0.2125,-0.2126,-0.2103,-0.2105,-0.2036,-0.2083,-0.2083,-0.2083,-0.2084,0,-0.2886,-0.283,-0.2772,-0.273,-0.2666,-0.2627,-0.2564,-0.2527,-0.2476,-0.2426,-0.2399,-0.2352,-0.2301,-0.2246,-0.2213,-0.2144,-0.2128,-0.2107,-0.2098,-0.2108,-0.2111,-0.2084,-0.2087,-0.2081,-0.2082,-0.2082,-0.2082,0,-0.2849,-0.2809,-0.2733,-0.2665,-0.2647,-0.2603,-0.2544,-0.2502,-0.2467,-0.2403,-0.2386,-0.233,-0.2265,-0.222,-0.2135,-0.2113,-0.2039,-0.2031,-0.206,-0.2055,-0.2026,-0.2029,-0.1936,-0.1922,-0.1979,-0.1979,-0.1978,0,-0.2812,-0.2768,-0.2698,-0.2663,-0.2629,-0.2574,-0.2535,-0.2495,-0.2455,-0.2386,-0.2351,-0.2286,-0.2231,-0.2129,-0.2079,-0.2015,-0.2005,-0.1977,-0.1995,-0.2007,-0.2004,-0.2007,-0.2002,-0.1974,-0.1973,-0.1973,-0.1973,0,-0.2749,-0.2732,-0.2678,-0.2618,-0.2574,-0.2523,-0.2473,-0.2446,-0.2397,-0.2353,-0.2289,-0.2247,-0.2163,-0.2097,-0.2029,-0.1991,-0.1973,-0.1968,-0.1957,-0.1966,-0.1985,-0.1974,-0.2052,-0.197,-0.197,-0.197,-0.197,-0.197,-0.271,-0.2671,-0.2616,-0.2557,-0.2516,-0.247,-0.2428,-0.2389,-0.2335,-0.2265,-0.2245,-0.2177,-0.212,-0.2027,-0.1988,-0.1934,-0.1936,-0.192,-0.1916,-0.1912,-0.1913,-0.1995,-0.1922,-0.1922,-0.1922,-0.1922,-0.1922,0,-0.2646,-0.261,-0.2557,-0.2489,-0.2443,-0.2434,-0.2378,-0.234,-0.2282,-0.2231,-0.2179,-0.2105,-0.2042,-0.1989,-0.1924,-0.1891,-0.1881,-0.1875,-0.1877,-0.1868,-0.1915,-0.1931,-0.1885,-0.1885,-0.1885,-0.1885,-0.1885,-0.1885,-0.2607,-0.2541,-0.2518,-0.2431,-0.2395,-0.233,-0.23,-0.2257,-0.2216,-0.2136,-0.2085,-0.2052,-0.2,-0.1932,-0.1874,-0.186,-0.1837,-0.1833,-0.1817,-0.1861,-0.1865,-0.1869,-0.1884,-0.1828,-0.1828,-0.1774,-0.1774,-0.1774]},{"header":{"parameterUnit":"m.s-1","parameterCategory":1,"la1":30.2991,"la2":30.254,"lo1":-89.0895,"lo2":-89.0444,"dy":0.0017,"dx":0.0017,"nx":28,"ny":28,"refTime":"2025-08-05T21:00:00:Z","depth":0,"parameterNumber":3,"parameterNumberName":"V-component_of_WINDS"},"data":[0,0,0,0,0,0,0,0,0,0,0,0,0,0,0,0,0,0,0,0,0,0,0,0,0,0,0,0,0,0,0,0,0,0,0,0,0,0,0,0,0,0,0,0,0,0,0,0,0,0,0,0,0,0,0,0,0,0,1.8856,1.8857,0,1.8886,1.8886,1.8887,1.892,1.892,1.8921,1.8921,1.8949,1.8949,1.8949,0,0,0,0,0,0,0,0,0,0,0,0,0,1.8825,1.8825,1.8856,1.8857,1.8857,1.8886,1.8886,1.8887,1.892,1.892,1.8921,1.8922,1.8949,1.8949,1.8949,0,0,0,0,0,0,0,0,0,0,0,0,0,1.8845,1.8825,1.8856,1.8877,1.8879,1.8886,1.8886,1.8887,1.892,1.892,1.8921,1.8922,1.8949,1.8949,1.8949,1.8937,0,0,1.8951,1.8951,0,0,0,0,0,0,0,0,1.8844,1.8846,1.8874,1.8876,1.8878,1.89,1.8885,1.8904,1.8919,1.8904,1.8921,1.8922,1.8932,1.8934,1.8937,1.8938,1.8939,1.8951,1.8951,1.8951,1.8951,0,0,0,0,0,0,0,1.8842,1.8845,1.8868,1.8874,1.8877,1.8884,1.8887,1.8889,1.8913,1.8906,1.8908,1.8911,1.8933,1.8937,1.8938,1.894,1.8951,1.8951,1.8951,1.8951,1.893,1.8929,0,0,0,0,0,0,1.8838,1.8843,1.8867,1.8869,1.8862,1.8884,1.8888,1.8892,1.8913,1.8917,1.8911,1.8913,1.8936,1.8938,1.8939,1.8925,1.8951,1.8952,1.8952,1.893,1.8929,1.8928,0,0,0,0,0,0,1.8837,1.884,1.8866,1.8857,1.8861,1.8884,1.8888,1.8892,1.8896,1.8917,1.8922,1.891,1.8937,1.8939,1.8937,1.8926,1.8952,1.8952,1.8931,1.893,1.8929,1.8896,0,0,0,0,0,0,1.8836,1.8839,1.8836,1.8857,1.8861,1.8864,1.8888,1.8892,1.8897,1.89,1.8918,1.8922,1.8937,1.8936,1.8937,1.8927,1.8952,1.8932,1.8931,1.8929,1.8898,1.8893,1.889,0,0,0,0,0,1.8835,1.8825,1.8836,1.8838,1.8857,1.8863,1.8866,1.8885,1.8896,1.8892,1.8905,1.8921,1.8927,1.8936,1.8937,1.8927,1.8933,1.8931,1.8929,1.89,1.8894,1.889,0,0,0,0,0,0,1.8802,1.8828,1.884,1.8837,1.8848,1.8869,1.8864,1.8879,1.8886,1.8888,1.8911,1.8914,1.8909,1.8918,1.8927,1.8915,1.8932,1.8931,1.8909,1.8904,1.89,1.8898,1.8953,0,0,0,0,0,1.8795,1.8798,1.8821,1.8816,1.8821,1.8841,1.8845,1.8858,1.887,1.8875,1.8888,1.8898,1.8901,1.8904,1.8909,1.89,1.8903,1.8893,1.8889,1.8886,1.8883,1.8877,1.8872,1.8922,1.8922,1.8922,0,0,1.8779,1.8794,1.8795,1.8809,1.8819,1.8821,1.8845,1.8847,1.8848,1.8875,1.8873,1.8883,1.8895,1.8889,1.8887,1.8897,1.887,1.8883,1.888,1.888,1.8875,1.887,1.8866,1.8921,1.8921,1.8922,0,0,1.8751,1.8763,1.876,1.8769,1.8784,1.8798,1.8796,1.8815,1.8823,1.8822,1.8842,1.8843,1.885,1.8858,1.8862,1.8835,1.8849,1.8836,1.8815,1.8808,1.8804,1.8801,1.8789,1.8785,1.8835,1.8834,1.8834,0,1.8729,1.8734,1.8756,1.8755,1.876,1.8786,1.8781,1.8789,1.8804,1.8806,1.8816,1.8825,1.8835,1.883,1.8823,1.8827,1.8825,1.8834,1.8803,1.88,1.8797,1.8786,1.8782,1.8833,1.8833,1.8833,1.8833,0,1.8705,1.8708,1.8703,1.8717,1.8722,1.872,1.8739,1.8741,1.8754,1.8766,1.8764,1.8777,1.8784,1.8784,1.8797,1.8781,1.8786,1.8799,1.8817,1.879,1.878,1.8776,1.883,1.8831,1.8831,1.8832,0,0,1.8658,1.8683,1.8681,1.8687,1.8704,1.8706,1.8704,1.8712,1.8712,1.8721,1.8719,1.8723,1.8736,1.8741,1.8755,1.8749,1.8725,1.8764,1.8764,1.8754,1.8704,1.8693,1.8688,1.8735,1.8734,1.8733,1.8703,0,1.8631,1.863,1.8648,1.8641,1.8643,1.8666,1.8664,1.8673,1.8684,1.8686,1.8698,1.8701,1.8718,1.8721,1.8717,1.8728,1.8715,1.8731,1.873,1.873,1.8725,1.8683,1.8671,1.8641,1.8699,1.8699,1.8698,0,1.8601,1.8608,1.8601,1.8617,1.8618,1.8616,1.8624,1.8626,1.8637,1.8645,1.865,1.8666,1.8663,1.8681,1.8676,1.8687,1.8688,1.8694,1.8693,1.8692,1.8711,1.8679,1.8632,1.8627,1.8693,1.8693,1.8694,0,1.8563,1.8572,1.8568,1.8573,1.8593,1.859,1.8598,1.8609,1.8612,1.8618,1.862,1.8626,1.8628,1.8632,1.8648,1.866,1.864,1.866,1.8645,1.8645,1.8639,1.8639,1.859,1.8643,1.8643,1.8643,1.8643,0,1.8531,1.8525,1.8552,1.8549,1.8543,1.8564,1.8556,1.8566,1.8576,1.8575,1.8596,1.8594,1.8616,1.8616,1.8629,1.8622,1.8623,1.8629,1.8632,1.8626,1.8625,1.8625,1.8627,1.8642,1.8642,1.8642,1.8642,0,1.8488,1.8506,1.8503,1.8522,1.8526,1.852,1.8535,1.8533,1.8545,1.8543,1.8544,1.8562,1.8563,1.858,1.8585,1.8593,1.858,1.8588,1.8577,1.8578,1.8562,1.8562,1.851,1.8503,1.8562,1.8562,1.8561,0,1.8466,1.8462,1.8479,1.848,1.8487,1.8488,1.8491,1.8511,1.8513,1.8524,1.852,1.8523,1.8526,1.8526,1.8539,1.8542,1.8549,1.8531,1.855,1.8543,1.8546,1.8545,1.8544,1.8526,1.8525,1.8525,1.8524,0,1.8423,1.8431,1.8435,1.8441,1.8444,1.8449,1.8456,1.8455,1.8477,1.8478,1.848,1.8482,1.8486,1.8488,1.8493,1.85,1.8515,1.8518,1.8515,1.8507,1.85,1.8502,1.8563,1.8519,1.852,1.852,1.852,1.852,1.8388,1.8385,1.8396,1.8399,1.8406,1.8411,1.8409,1.8421,1.8423,1.8428,1.844,1.8439,1.8448,1.8457,1.8463,1.8461,1.847,1.8466,1.8464,1.8462,1.8458,1.8502,1.8462,1.8463,1.8463,1.8463,1.8463,0,1.8344,1.8352,1.8355,1.8363,1.8365,1.838,1.8388,1.8388,1.8387,1.8395,1.8397,1.8398,1.8399,1.8412,1.8415,1.8411,1.8418,1.8411,1.841,1.8411,1.8451,1.8452,1.8405,1.8405,1.8405,1.8405,1.8405,1.8405,1.8321,1.8316,1.8325,1.8323,1.8331,1.8331,1.8334,1.8338,1.8344,1.8344,1.8345,1.8354,1.8363,1.8367,1.8368,1.8372,1.8371,1.8361,1.8367,1.8403,1.8409,1.8414,1.8416,1.8361,1.8361,1.8327,1.8327,1.8326]}]]